Terug naar catalogus

FENGYUN 1C DEB

ActiefLEO
NORAD 31861·DEBRIS·🇨🇳 China

Gelanceerd May 10, 1999 vanaf Taiyuan Satellite Launch Center

Loading…

Volgende Passages (komende 24 uur)

TLE

VerouderendSource: Space-Track

Epoch: Sep 9, 2026, 11:54 UTC

1 31861U 99025CKB 26252.49636221  .00001199  00000-0  13353-2 0  9991
2 31861 102.3319 144.3576 0494997 337.5287  20.4803 13.31348768703693

Volg FENGYUN 1C DEB in realtime met AllMySat

Download on the App Store